Fecha, hora, temperatura, viento dirección y velocidad, humedad y presión.

  • 26-02-2020 17:00:00 | 2.40°C | Noroeste |9.00 km/h | 71.00% | 0.00 hPa
  • 26-02-2020 16:00:00 | 2.80°C | Noroeste |8.00 km/h | 72.00% | 0.00 hPa
  • 26-02-2020 15:00:00 | 2.80°C | Noroeste |5.00 km/h | 75.00% | 0.00 hPa
  • 26-02-2020 14:00:00 | 3.30°C | Noroeste |5.00 km/h | 80.00% | 0.00 hPa
  • 26-02-2020 12:00:00 | 1.50°C | Noroeste |8.00 km/h | 86.00% | 0.00 hPa
  • 26-02-2020 12:00:00 | 1.50°C | Noroeste |8.00 km/h | 86.00% | 0.00 hPa
  • 26-02-2020 11:00:00 | 0.50°C | Noroeste |8.00 km/h | 87.00% | 0.00 hPa
  • 26-02-2020 10:00:00 | -0.50°C | Noroeste |10.00 km/h | 87.00% | 0.00 hPa
  • 26-02-2020 09:00:00 | -0.90°C | Noroeste |9.00 km/h | 87.00% | 0.00 hPa
  • 26-02-2020 08:00:00 | -1.00°C | Noroeste |11.00 km/h | 84.00% | 0.00 hPa
  • 26-02-2020 07:00:00 | -0.90°C | Noroeste |17.00 km/h | 80.00% | 0.00 hPa
  • 26-02-2020 06:00:00 | -1.10°C | Noroeste |14.00 km/h | 80.00% | 0.00 hPa
  • 26-02-2020 05:00:00 | -1.10°C | Noroeste |14.00 km/h | 83.00% | 0.00 hPa
  • 26-02-2020 04:00:00 | -1.10°C | Noroeste |12.00 km/h | 86.00% | 0.00 hPa
  • 26-02-2020 02:00:00 | -0.70°C | Noroeste |13.00 km/h | 91.00% | 0.00 hPa
  • 26-02-2020 02:00:00 | -0.70°C | Noroeste |13.00 km/h | 91.00% | 0.00 hPa
  • 26-02-2020 01:00:00 | -1.00°C | Noroeste |6.00 km/h | 91.00% | 0.00 hPa
  • 26-02-2020 00:00:00 | -0.70°C | Noroeste |10.00 km/h | 91.00% | 0.00 hPa
  • 25-02-2020 23:00:00 | 0.60°C | Noroeste |14.00 km/h | 91.00% | 0.00 hPa
  • 25-02-2020 22:00:00 | 1.40°C | Noroeste |7.00 km/h | 91.00% | 0.00 hPa
  • 25-02-2020 21:00:00 | 1.70°C | Noroeste |12.00 km/h | 91.00% | 0.00 hPa
  • 25-02-2020 20:00:00 | 2.10°C | Noroeste |10.00 km/h | 91.00% | 0.00 hPa
  • 25-02-2020 19:00:00 | 2.50°C | Noroeste |8.00 km/h | 91.00% | 0.00 hPa
  • 25-02-2020 18:00:00 | 3.30°C | Noroeste |10.00 km/h | 91.00% | 0.00 hPa
    • diseño web asturias Información sobre el estado de las mareas, altura de la marejada, temperatura del agua y otros datos de Gijón en Asturias.

      Surf Gijón